カタログに戻る

METEOR 2-18

運用中気象PO
NORAD 19851·PAYLOAD·🇷🇺 Russia

打ち上げ Feb 28, 1989 から Plesetsk Cosmodrome

Loading…

次のパス (今後24時間)

TLE

最新Source: Space-Track

元期: Sep 14, 2026, 13:38 UTC

1 19851U 89018A   26257.56873196  .00000044  00000-0  25553-4 0  9999
2 19851  82.5169  97.4358 0011262 236.3333 136.4050 13.86039896898207

AllMySatでMETEOR 2-18をリアルタイム追跡

Download on the App Store